This is the latest recevied weather packets stored in our database for station/object KC8JWT. If no packets are shown the sender has not sent any weather packets the latest 10 day(s).
| Time | Temp. | Humidity | Pressure | Rain* | Wind** | Luminosity | Snow |
|---|---|---|---|---|---|---|---|
| 1777356090 | 13.89° C | 98% | 1014.1 hPa | 0 mm | - | 0 W/m² | - |
| 1777355787 | 13.89° C | 99% | 1013.8 hPa | 0 mm | - | 0 W/m² | - |
| 1777355484 | 13.89° C | 98% | 1014.2 hPa | 0 mm | - | 0 W/m² | - |
| 1777355180 | 13.89° C | 98% | 1014.9 hPa | 0 mm | - | 0 W/m² | - |
| 1777354876 | 13.89° C | 98% | 1015.2 hPa | 3.05 mm | - | 0 W/m² | - |
| 1777354573 | 13.89° C | 97% | 1015.5 hPa | 4.83 mm | - | 0 W/m² | - |
| 1777354269 | 13.89° C | 97% | 1015.9 hPa | 3.56 mm | - | 0 W/m² | - |
| 1777353966 | 13.89° C | 97% | 1015.8 hPa | 1.78 mm | - | 0 W/m² | - |
| 1777353662 | 13.89° C | 97% | 1015.7 hPa | 1.27 mm | - | 0 W/m² | - |
| 1777353360 | 14.44° C | 97% | 1015.9 hPa | 3.05 mm | - | 0 W/m² | - |
| 1777353057 | 15° C | 96% | 1016.1 hPa | 3.05 mm | - | 0 W/m² | - |
| 1777352756 | 15° C | 95% | 1016.4 hPa | 1.27 mm | - | 0 W/m² | - |
| 1777352455 | 15° C | 92% | 1016.3 hPa | 4.32 mm | - | 0 W/m² | - |
| 1777352151 | 15.56° C | 89% | 1016.2 hPa | 3.05 mm | - | 0 W/m² | - |
| 1777351848 | 16.67° C | 83% | 1016.1 hPa | 4.83 mm | - | 0 W/m² | - |
| 1777351547 | 17.22° C | 77% | 1016.1 hPa | 4.32 mm | - | 0 W/m² | - |
| 1777351244 | 17.78° C | 73% | 1016.1 hPa | 3.05 mm | - | 0 W/m² | - |
| 1777350943 | 18.89° C | 68% | 1016 hPa | 1.78 mm | - | 0 W/m² | - |
| 1777350639 | 19.44° C | 63% | 1015.9 hPa | 0 mm | - | 0 W/m² | - |
| 1777350336 | 20° C | 59% | 1015.5 hPa | 0 mm | - | 0 W/m² | - |
| 1777350033 | 20.56° C | 57% | 1015.7 hPa | 0 mm | - | 0 W/m² | - |
| 1777349730 | 20.56° C | 54% | 1015 hPa | 0 mm | - | 0 W/m² | - |
| 1777349427 | 20.56° C | 53% | 1015.2 hPa | 0 mm | - | 0 W/m² | - |
| 1777349126 | 20.56° C | 51% | 1015 hPa | 0 mm | - | 0 W/m² | - |
| 1777348822 | 20.56° C | 51% | 1014.8 hPa | 0 mm | - | 0 W/m² | - |
* Rain latest hour (hover to see other rain measurements)
** Current wind speed in m/s (hover to see current wind gust speed)